Regional Weather Roundup
Issued by NWS

Home | Current Version | Previous Version | Text Only | Print | Product List | Glossary Off
Versions: 1 2 3 4 5 6 7 8 9 10 11 12 13 14 15 16 17 18 19 20 21 22 23 24 25 26 27 28 29 30 31 32 33 34 35 36 37 38 39 40 41 42 43 44 45 46 47 48 49 50

000
ASUS43 KTOP 190459
RWRKS

WEATHER ROUNDUP FOR KANSAS
NATIONAL WEATHER SERVICE GOODLAND KS
1200 AM CDT SUN APR 19 2015

NOTE:  "FAIR" INDICATES FEW OR NO CLOUDS BELOW 12,000 FEET WITH NO
SIGNIFICANT WEATHER AND/OR OBSTRUCTIONS TO VISIBILITY.

KSZ001>006-013>018-027>032-041>047-190600-
NORTHWEST KANSAS

CITY           SKY/WX    TMP DP  RH WIND       PRES   REMARKS
GOODLAND       CLOUDY    47  44  90 N10       29.79F
HAYS           CLOUDY    52  43  71 E7        29.77F
HILL CITY      CLOUDY    51  48  89 NE8       29.80R
RUSSELL        CLOUDY    52  48  86 NE7       29.74F
$$

KSZ061>065-074>080-084>089-190600-
SOUTHWEST KANSAS

CITY           SKY/WX    TMP DP  RH WIND       PRES   REMARKS
DODGE CITY     MOCLDY    50  40  68 NW3       29.78F
ELKHART          N/A    N/A N/A N/A MISG        N/A
GARDEN CITY    MOCLDY    45  37  73 W10       29.78F
GREAT BEND     CLOUDY    52  45  76 S10       29.75R
LIBERAL        CLEAR     45  34  65 N9        29.82S
$$

KSZ066>073-081>083-090>101-190600-
SOUTHEAST KANSAS

CITY           SKY/WX    TMP DP  RH WIND       PRES   REMARKS
CHANUTE        CLOUDY    60  57  89 NW13      29.80R
COFFEYVILLE    CLOUDY    61  59  93 CALM      29.76F
HUTCHINSON     CLOUDY    55  50  83 NE8       29.80F
MEDICINE LODGE   N/A     56  50  80 E8        29.78R
NEWTON         CLOUDY    54  48  82 SW10      29.86R
PARSONS        CLOUDY    61  59  93 CALM      29.79F
WICHITA INTL   TSTM      55  53  93 SW6       29.86R FOG
WICHITA JABRA  HVY RAIN  55  55 100 W9        29.85R
WICHITA MCCONL HVY RAIN  55  54  94 W8        29.85R FOG
WINFIELD       RAIN      52  51  97 SW9       29.89R FOG
$$

KSZ007>012-019>026-033>040-048>060-102>105-190600-
NORTHEAST KANSAS

CITY           SKY/WX    TMP DP  RH WIND       PRES   REMARKS
CONCORDIA      CLOUDY    53  52  96 SE3       29.79F
EMPORIA        LGT RAIN  54  51  90 N8        29.81F
LAWRENCE       CLOUDY    58  56  93 W7        29.82S
MANHATTAN      LGT RAIN  55  54  96 S3        29.82F FOG
OLATHE IND     CLOUDY    59  58  96 SE3       29.81F
OLATHE EXE     CLOUDY    59  58  96 CALM      29.80F
SALINA         CLOUDY    54  51  90 S5        29.81R
TOPEKA BILLARD CLOUDY    57  52  83 W7        29.83S
TOPEKA FORBES  CLOUDY    58  52  80 NW7       29.82S
$$



USA.gov is the U.S. government's official web portal to all federal, state and local government web resources and services.